www.pogodaiklimat.ru

Погода и климат >> Архив погоды >> Индия >> Veraval


ПОГОДА в Veraval

  • Прогноз погоды в Veraval
  • Монитор погоды в Veraval
  • Климат города

АРХИВ ПОГОДЫ в Veraval

Время (UTC), дата Ветер
(напр.,м/с)
 
Видим.   Явления Облачность Т
(С)
Тd
(С)
f
(%)
Тe
(С)
Тes
(С)
Комфортность P
(гПа)
Po
(гПа)
Тmin
(С)
Tmax
(С)
R
(мм)
R24
(мм)
S
(см)
00 12.11 штиль 0 4000 м ясно +21.0 +16.0 73 +24 +24 комфорт 1011.1 1011.0
03 12.11 В 2 10 км ясно +22.2 +7.4 38 +22 +23 комфорт 1012.4 1012.0 +21.0
06 12.11 С 1 10 км ясно +31.8 0.0 13 +29 +42 жарко 1012.7 1013.0
09 12.11 Ю 2 10 км ясно +31.8 0.0 13 +29 +39 жарко 1009.7 1010.0
12 12.11 Ю 1 10 км ясно +29.6 +9.9 29 +27 +28 жарко 1008.9 1009.0 +34.5
15 12.11 штиль 0 4000 м ясно +27.2 +19.5 63 +33 +33 очень
душно
1010.4 1010.0
18 12.11 штиль 0 4000 м ясно +24.2 +18.9 72 +29 +29 душно 1010.7 1011.0
21 12.11 штиль 0 4000 м ясно +22.2 +18.0 77 +27 +27 душно 1009.4 1009.0
00 13.11 штиль 0 4000 м ясно +20.8 +16.9 78 +24 +24 комфорт 1009.3 1009.0
03 13.11 В 1 10 км ясно +21.6 +8.3 42 +21 +23 комфорт 1010.7 1011.0 +20.0
06 13.11 штиль 0 10 км ясно +31.6 0.0 13 +28 +44 жарко 1011.0 1011.0
09 13.11 ЮЗ 2 10 км ясно +31.8 0.0 13 +29 +40 жарко 1008.1 1008.0
12 13.11 ЮЗ 2 10 км 4/0
[Ci fib]
+29.4 0.0 15 +27 +27 жарко 1007.2 1007.0 +32.7
15 13.11 ЮЗ 2 4000 м 3/0
[Ci fib]
+28.0 +8.8 30 +34 +34 очень
душно
1008.6 1009.0
18 13.11 штиль 0 4000 м ясно +25.2 +17.9 64 +30 +30 душно 1009.0 1009.0
21 13.11 штиль 0 4000 м ясно +23.2 +18.5 75 +29 +29 душно 1008.7 1009.0
00 14.11 штиль 0 4000 м ясно +21.2 +9.4 47 +26 +26 душно 1008.9 1009.0
03 14.11 штиль 0 10 км ясно +23.2 0.0 21 +22 +24 комфорт 1010.7 1011.0 +21.6
06 14.11 С 2 10 км ясно +29.2 0.0 15 +27 +39 жарко 1010.6 1011.0
09 14.11 З 2 10 км 3/3 600 м
[Sc]
+31.8 0.0 13 +29 +36 жарко 1007.8 1008.0
12 14.11 З 2 10 км ясно +29.2 +9.4 29 +27 +27 жарко 1007.3 1007.0 +33.2
15 14.11 С 1 4000 м ясно +26.6 +19.2 64 +32 +32 очень
душно
1009.2 1009.0
18 14.11 штиль 0 4000 м ясно +24.4 +20.4 78 +30 +30 очень
душно
1009.9 1010.0
21 14.11 штиль 0 4000 м ясно +23.0 +19.2 79 +29 +29 очень
душно
1009.4 1009.0
00 15.11 штиль 0 4000 м ясно +21.8 +17.6 77 +26 +26 душно 1009.6 1010.0
03 15.11 С 2 10 км ясно +22.4 +8.5 41 +22 +23 комфорт 1011.4 1011.0 +21.3
06 15.11 С 3 10 км ясно +30.2 0.0 14 +27 +37 жарко 1011.8 1012.0
09 15.11 С 2 10 км ясно +32.0 0.0 13 +29 +39 жарко 1009.3 1009.0
12 15.11 В 2 10 км ясно +30.2 0.0 14 +27 +28 жарко 1008.7 1009.0 +32.5
15 15.11 штиль 0 4000 м ясно +26.4 +7.2 29 +29 +29 жарко 1010.7 1011.0
18 15.11 штиль 0 4000 м ясно +23.2 +13.2 53 +26 +26 жарко 1011.3 1011.0
21 15.11 штиль 0 4000 м ясно +21.2 +9.7 48 +23 +23 комфорт 1010.4 1010.0
00 16.11 СВ 2 4000 м ясно +20.2 +8.8 48 +22 +22 комфорт 1010.6 1011.0
03 16.11 СВ 2 10 км ясно +21.8 0.0 23 +21 +23 комфорт 1012.4 1012.0 +19.8
06 16.11 С 3 10 км ясно +29.6 0.0 15 +27 +37 жарко 1013.4 1013.0
09 16.11 С 2 10 км ясно +31.4 0.0 13 +28 +39 жарко 1010.8 1011.0
12 16.11 С 2 10 км ясно +30.8 0.0 14 +28 +29 жарко 1009.9 1010.0 +32.0
15 16.11 штиль 0 4000 м ясно +25.0 +10.7 41 +26 +26 жарко 1011.6 1012.0
18 16.11 С 1 4000 м ясно +22.8 +11.4 49 +25 +25 комфорт 1012.5 1013.0
21 16.11 штиль 0 4000 м ясно +20.4 +11.4 56 +22 +22 комфорт 1011.8 1012.0
00 17.11 штиль 0 4000 м ясно +19.4 +10.6 57 +20 +20 1011.4 1011.0
03 17.11 С 1 10 км ясно +19.2 0.0 27 +20 +22 1013.5 1014.0 +18.5
06 17.11 С 2 10 км ясно +27.0 0.0 17 +25 +37 комфорт 1013.7 1014.0
09 17.11 СВ 2 10 км 3/0
[Ci fib]
+31.2 0.0 13 +28 +38 жарко 1010.3 1010.0
12 17.11 штиль 0 10 км ясно +29.6 0.0 15 +27 +28 жарко 1009.6 1010.0 +31.4
15 17.11 СВ 2 4000 м ясно +25.4 +13.1 46 +27 +27 жарко 1011.0 1011.0
18 17.11 СВ 2 4000 м ясно +23.0 +11.7 49 +25 +25 комфорт 1012.4 1012.0
21 17.11 СВ 3 4000 м ясно +22.6 +9.3 43 +24 +24 комфорт 1011.2 1011.0
00 18.11 СВ 3 4000 м ясно +21.2 +8.3 43 +22 +22 комфорт 1011.3 1011.0
03 18.11 СВ 3 10 км ясно +21.0 0.0 25 +21 +22 комфорт 1013.5 1014.0 +20.5
06 18.11 С 2 10 км ясно +28.2 0.0 16 +26 +38 жарко 1014.1 1014.0
09 18.11 С 2 10 км ясно +30.4 0.0 14 +27 +37 жарко 1011.7 1012.0
12 18.11 С 2 10 км ясно +28.8 0.0 15 +26 +27 жарко 1011.1 1011.0 +30.5
15 18.11 С 2 4000 м ясно +20.6 +15.6 73 +24 +24 комфорт 1013.0 1013.0
18 18.11 С 2 4000 м ясно +22.2 +12.8 55 +25 +25 комфорт 1013.8 1014.0

 

Местоположение метеостанции Veraval (Gujarat, Индия): широта 20.90 долгота 70.37 высота над уровнем моря 8 м.

В архиве по умолчанию представлена погода в Veraval за последнюю неделю. Архивные данные за месяц целиком и за предыдущие месяцы, начиная с января 2011 года, Вы можете получить, выбрав интересующий диапазон дат из раскрывающегося списка и нажав кнопку "Ввод!".

Внимание! Время в таблицах - всемирное. Для получения местного времени необходимо прибавить поправку, которая в Veraval равна 5.5 ч.

Смотрите также архив погоды в соседних городах и на ближайших метеорологических станциях:

Погода в Diu (Daman and Diu, Индия) (61 км)
Погода в Porbandar (Gujarat, Индия) (111 км)
Погода в Amreli (Gujarat, Индия) (118 км)
Погода в Mahuva (Gujarat, Индия) (148 км)
Погода в Rajkot (Gujarat, Индия) (161 км)
Погода в Dwarka (Gujarat, Индия) (211 км)
Погода в Bhaunagar (Gujarat, Индия) (212 км)
Погода в Okha (Gujarat, Индия) (218 км)
Погода в New Kandla (Gujarat, Индия) (234 км)
Погода в Surendranagar (Gujarat, Индия) (240 км)

Пояснения к столбцам:

Ветер - указаны скорость ветра в м/с - средняя за 10 мин, порывы в срок и между сроками (в фигурных скобках) и направление, откуда дует ветер: С - северный, СВ - северо-восточный, В - восточный, ЮВ - юго-восточный, Ю - южный, ЮЗ - юго-западный, З - западный, СЗ - северо-западный.
Видимость - горизонтальная дальность видимости в метрах или километрах. При видимости от 1 до 10 км при отсутствии осадков обычно наблюдается дымка, при ухудшении видимости до 1 км и менее - туман. В сухую погоду видимость может ухудшаться дымом, пылью или мглою.
Явления - указаны атмосферные явления, наблюдавшиеся в срок или в последний час перед сроком; фигурными скобками обозначены явления, наблюдавшиеся между сроками (за 1-3 часа до срока); квадратными скобками обозначены град или гололедные отложения с указанием их диаметра в мм.
Облачность - указаны через наклонную черту общая и нижняя облачность в баллах и высота нижней границы облаков в метрах; квадратными скобками обозначены формы облаков: Ci - перистые, Cs - перисто-слоистые, Cc - перисто-кучевые, Ac - высококучевые, As - высокослоистые, Sc - слоисто-кучевые, Ns - слоисто-дождевые, Cu - кучевые, Cb - кучево-дождевые. Подробнее классификацию облаков см. в Атласе облаков (PDF).
T - Температура воздуха - температура, измеренная на высоте 2 м над землей.
Td - Температура точки росы - температура, при понижении до которой содержащийся в воздухе водяной пар достигнет насыщения.
f - Относительная влажность воздуха - влажноcть воздуха, измеренная на высоте 2 м над землей.
Te - Эффективная температура - температура, которую ощущает одетый по сезону человек в тени. Характеристика душности погоды. При расчете учитывается влияние влажности воздуха и скорости ветра на теплоощущения человека.
Tes - Эффективная температура на солнце - температура, которую ощущает человек, с поправкой на солнечный нагрев. Характеристика знойности погоды. Зависит от высоты солнца над горизонтом, облачности и скорости ветра. Ночью, в пасмурную погоду, а также при ветре 12 м/с и более поправка равна нулю.
P - Атмосферное давление - приведенное к уровню моря атмосферное давление.
Po - Атмосферное давление - измеренное на уровне метеостанции атмосферное давление.
Tmin - Минимальная температура - минимум температуры воздуха на высоте 2 м над землей.
Tmax - Максимальная температура - максимум температуры воздуха на высоте 2 м над землей.
R - Количество осадков - Количество выпавших осадков за период времени, мм. При наведении курсора мыши на число - период времени, за который выпало указанное количество осадков.
R24 - Количество осадков - Количество выпавших осадков за 24 часа, мм.
S - Снежный покров - Высота снежного покрова, см. При наведении курсора мыши на число - состояние снежного покрова и степень покрытия местности в баллах.